Location: ??????????
(54.7560°N, 39.1389°E)
Time: 13:08:30
(UTC+00:00)

COSMOS 2428 - Pass Details

Date: 19 May 2025
Orbit: 845 x 853 km, 70.9° (Epoch: 20 June)

Event Time Altitude Azimuth Distance (km) Brightness Sun altitude
Rises 22:56:47 0° 324° (NW) 3,435 6.3 -12.5°
Reaches altitude 10° 22:59:19 10° 319° (NW) 2,495 5.5 -12.3°
Maximum altitude 23:04:45 46° 248° (WSW) 1,136 3.1 -12.0°
Enters shadow 23:09:53 11° 178° (S) 2,380 4.5 -11.7°
